Weather History for KNSI - October, 2012

Change the Weather History Date:

Saturday, October 6, 2012

  Actual Average Record
Temperature  
Mean Temperature 78 °F -  
Max Temperature 88 °F 66 °F 88 °F (2012)
Min Temperature 70 °F 57 °F 53 °F (2004)
Cooling Degree Days 14    
Growing Degree Days 28 (Base 50)    
Moisture  
Dew Point 55 °F    
Average Humidity 50    
Maximum Humidity 63    
Minimum Humidity 32    
Precipitation  
Precipitation 0.00 in - - ()
Sea Level Pressure  
Sea Level Pressure 29.92 in    
Wind  
Wind Speed 24 mph (WNW)    
Max Wind Speed 26 mph    
Max Gust Speed 33 mph    
Visibility 7 miles    
Events      
Averages and records for this station are not official NWS values.
T = Trace of Precipitation, MM = Missing Value Source: NWS Daily Summary

Daily Weather History Graph

Daily Weather History Graph

Search for Another Location

Airport or City:

Trip Planner

Search our weather history database for the weather conditions in past years. The results will help you decide how hot, cold, wet, or windy it might be!

Date:

Astronomy

Oct. 06, 2012 Rise Set
Actual Time 6:56 AM PDT 6:34 PM PDT
Civil Twilight 6:31 AM PDT 6:59 PM PDT
Nautical Twilight 6:02 AM PDT 7:28 PM PDT
Astronomical Twilight 5:33 AM PDT 7:57 PM PDT
Moon 11:08 PM PDT (10/6) 12:40 PM PDT (10/6)
Length of Visible Light 12h 28m
Length of Day
11h 38m
Waning Gibbous, 64% of the Moon is Illuminated
Oct 6
Waning Gibbous
Oct 8
Last Quarter
Oct 15
New
Oct 21
First Quarter
Oct 29
Full

Hourly Weather History & Observations

Time (PDT) Temp. Heat Index Dew Point Humidity Pressure Visibility Wind Dir Wind Speed Gust Speed Precip Events Conditions
12:53 AM 73.9 °F - 55.0 °F 52% 29.95 in - WNW 24.2 mph - N/A   Clear
1:53 AM 73.9 °F - 55.9 °F 53% 29.95 in - WNW 25.3 mph - N/A   Clear
2:53 AM 73.0 °F - 55.9 °F 55% 29.94 in - WNW 26.5 mph 33.4 mph N/A   Clear
3:53 AM 73.0 °F - 55.9 °F 55% 29.93 in - WNW 25.3 mph - N/A   Clear
4:53 AM 73.0 °F - 55.0 °F 53% 29.93 in - WNW 24.2 mph 31.1 mph N/A   Clear
5:53 AM 73.9 °F - 53.1 °F 48% 29.93 in - WNW 26.5 mph 32.2 mph N/A   Clear
6:53 AM 73.9 °F - 53.1 °F 48% 29.94 in - WNW 20.7 mph 27.6 mph N/A   Clear
7:53 AM 73.9 °F - 55.0 °F 52% 29.95 in - WNW 21.9 mph - N/A   Clear
8:53 AM 78.1 °F - 55.0 °F 45% 29.95 in - WNW 24.2 mph 29.9 mph N/A   Clear
9:28 AM 75.2 °F - 55.4 °F 50% 29.98 in 7.0 mi WNW 24.2 mph 29.9 mph N/A   Mostly Cloudy
9:53 AM 75.0 °F - 50.0 °F 41% 29.96 in 7.0 mi WNW 25.3 mph - N/A   Mostly Cloudy
10:53 AM 84.0 °F 82.5 °F 53.1 °F 34% 29.95 in - WNW 21.9 mph - N/A   Clear
11:53 AM 87.1 °F 85.1 °F 54.0 °F 32% 29.94 in - WNW 23.0 mph - N/A   Clear
12:53 PM 79.0 °F - 52.0 °F 39% 29.93 in 7.0 mi WNW 24.2 mph 31.1 mph N/A   Scattered Clouds
1:53 PM 78.4 °F - 48.2 °F 34% 29.91 in 7.0 mi West 23.0 mph 31.1 mph N/A   Scattered Clouds
2:53 PM 77.2 °F - 52.2 °F 42% 29.90 in 7.0 mi West 20.7 mph - N/A   Mostly Cloudy
3:53 PM 74.5 °F - 53.6 °F 48% 29.89 in 7.0 mi WNW 20.7 mph 27.6 mph N/A   Scattered Clouds
5:53 PM 75.0 °F - 57.0 °F 53% 29.88 in - WNW 20.7 mph - N/A   Clear
6:53 PM 72.0 °F - 57.0 °F 59% 29.89 in - WNW 23.0 mph - N/A   Clear
7:53 PM 71.1 °F - 57.0 °F 61% 29.89 in - West 26.5 mph 29.9 mph N/A   Clear
8:53 PM 70.0 °F - 57.0 °F 63% 29.89 in - West 24.2 mph 32.2 mph N/A   Clear
9:53 PM 70.0 °F - 57.0 °F 63% 29.89 in - WNW 25.3 mph - N/A   Clear
10:53 PM 70.0 °F - 57.0 °F 63% 29.89 in - West 24.2 mph 29.9 mph N/A   Clear
11:53 PM 70.0 °F - 57.0 °F 63% 29.89 in - WNW 21.9 mph 28.8 mph N/A   Clear